Wind_Speed
6 11 14 16 15 15 13 13 8 10 16 8 7 10 10 11 11 16 21 25 27 26 26 24 23 20 14 11 10 18 23 31 31 28 24 22 19 17 16 17 16 15 15 16
14 12 14 16 16 17 15 15 15 17 11 4 15 15 14 12 13 16 18 21 23 24 24 25 24 22 18 13 10 15 21 19 25 25 23 22 20 20 18 17 16 16 16 16
8 6 12 11 9 15 13 7 9 10 3 8 7 12 16 13 14 15 16 17 21 22 23 21 20 20 20 16 9 10 16 19 22 24 23 25 26 27 21 20 19 18 17 17
4 7 4 1 16 10 11 8 3 10 5 9 13 16 13 13 12 14 16 16 17 18 20 18 17 17 15 15 12 10 10 13 17 20 21 23 24 24 24 23 23 21 18 18
2 3 11 8 7 5 2 6 7 8 3 11 16 13 15 11 11 11 12 14 17 16 17 17 17 16 17 17 16 14 15 14 12 8 11 17 22 22 22 24 23 21 20 18
2 3 3 3 12 14 3 3 7 5 4 0 13 1 2 7 9 11 12 12 14 17 18 17 17 14 16 20 21 22 20 18 17 15 13 14 12 14 17 18 21 19 20 17
5 4 3 12 20 17 3 3 8 10 14 10 5 7 9 9 13 13 13 13 13 16 18 19 18 14 15 17 19 17 16 16 17 19 18 19 18 15 14 15 15 17 18 17
4 1 2 24 7 6 4 11 11 15 13 17 18 16 15 14 13 12 13 14 14 15 16 16 15 16 17 17 13 12 11 12 15 15 15 15 18 18 17 17 14 16 15 15
5 3 5 11 11 12 12 13 12 14 10 13 17 16 15 16 14 14 11 13 12 14 14 15 17 18 14 13 11 10 10 14 14 13 14 13 15 17 15 16 19 22 22 23
2 4 9 15 13 14 13 14 14 13 14 15 18 14 14 13 12 11 11 11 10 11 14 15 15 16 19 17 10 8 9 12 13 13 13 13 14 15 15 18 19 19 21 22
3 6 8 13 13 10 12 14 15 15 15 14 13 12 11 12 11 10 9 9 7 9 12 13 11 11 12 12 14 16 14 13 13 13 14 15 15 15 15 16 14 14 16 17
1 7 7 6 6 10 12 13 12 14 14 12 11 12 9 11 10 10 11 10 10 10 10 11 10 9 10 9 9 9 13 15 16 14 14 14 13 15 15 15 14 14 13 11
2 9 12 10 10 11 13 13 12 13 12 15 14 12 9 11 11 11 12 12 13 13 11 10 9 8 9 8 6 6 8 8 8 10 12 12 13 12 13 14 13 13 13 12
2 9 7 2 7 12 13 11 10 12 12 13 11 9 9 9 9 9 10 10 9 9 9 9 8 9 9 8 6 6 5 5 4 5 6 7 8 9 10 11 11 11 13 11
6 6 12 11 11 13 9 7 8 10 10 9 8 6 6 6 8 9 9 8 7 6 6 6 6 8 10 7 6 7 6 5 5 4 4 4 5 6 6 6 6 7 7 6
9 11 14 15 13 15 8 5 5 8 7 6 4 3 4 3 4 5 7 7 5 5 5 4 3 5 4 5 4 3 3 4 4 3 3 3 4 3 3 2 3 3 4 5
12 12 13 11 10 10 7 6 5 6 7 6 6 5 5 5 6 6 6 7 6 4 3 2 3 3 0 2 3 3 3 3 2 1 0 1 1 1 1 2 3 4 4 2
11 9 9 7 8 8 8 7 6 5 5 5 4 4 4 4 3 4 5 6 6 3 2 1 2 3 3 3 3 4 4 2 3 3 2 2 2 2 1 1 2 2 2 1
7 8 10 8 6 5 5 6 5 6 7 5 3 3 3 2 2 2 4 6 7 5 3 2 0 3 5 5 4 4 6 4 1 2 4 3 3 4 3 2 2 1 1 2
8 8 7 7 6 5 9 10 9 8 8 6 4 4 3 2 2 2 3 3 7 7 6 6 5 4 7 7 5 5 5 6 5 5 6 6 5 5 6 5 5 5 4 4
8 8 8 9 12 13 12 12 9 8 7 6 5 5 4 3 1 1 2 5 8 10 6 7 8 7 7 8 7 7 7 7 7 6 6 6 6 6 6 6 7 7 8 8
11 12 13 13 12 12 11 9 7 5 5 4 3 2 1 1 3 6 6 7 9 10 11 11 10 8 8 9 10 10 9 8 8 7 7 6 7 8 8 8 8 8 9 9
15 15 14 13 11 9 8 7 5 5 3 2 2 2 2 3 5 7 7 9 10 11 10 9 8 7 8 9 11 11 9 9 9 10 10 11 11 11 11 11 12 12 12 13
16 14 13 12 10 8 7 5 5 5 6 4 5 5 4 6 8 9 9 9 8 8 7 6 6 5 3 6 8 6 7 9 10 10 10 10 11 11 11 11 11 11 10 10
13 13 10 8 6 5 5 4 2 2 2 3 4 5 5 7 8 9 10 9 8 8 7 7 7 6 7 8 8 8 7 9 8 8 10 8 9 13 14 13 12 12 11 10
12 10 5 4 2 1 2 4 7 6 6 9 9 8 9 9 9 10 10 9 8 7 7 9 9 9 9 10 10 8 10 9 10 10 8 8 8 7 10 13 14 14 14 13
9 7 6 6 5 5 5 7 10 10 10 11 10 8 11 11 11 10 10 9 10 10 12 11 11 12 11 11 11 10 11 11 10 10 12 13 13 13 14 12 11 13 15 15
Wind_Direction
282 280 282 276 281 276 260 265 258 302 305 1 109 94 71 53 39 24 17 19 22 24 28 31 33 31 48 79 126 149 163 165 168 175 180 181 182 193 201 209 212 215 219 216
297 290 273 270 281 258 259 262 265 279 261 57 50 62 54 36 38 36 22 16 18 23 28 30 33 35 27 55 100 139 145 153 154 165 170 180 188 194 199 205 209 216 218 211
270 292 311 279 246 229 242 287 274 246 121 156 104 63 28 24 35 37 31 21 21 25 30 33 38 40 40 30 48 114 122 132 149 160 176 185 189 190 197 203 207 209 212 205
286 311 255 31 26 47 57 36 13 79 89 95 96 85 57 35 33 38 36 33 30 31 36 39 47 58 58 54 42 60 73 115 134 151 165 172 176 190 197 200 197 192 190 189
226 227 297 305 36 25 317 58 15 56 63 119 127 98 53 31 39 42 44 42 39 36 43 46 48 55 74 76 72 70 66 63 69 81 121 139 151 159 157 165 168 171 175 172
192 271 272 337 334 335 190 111 12 50 2 253 169 129 46 37 54 52 51 50 45 42 47 51 51 55 65 75 84 82 80 82 85 82 94 87 91 126 141 153 149 149 157 157
215 237 281 355 329 321 157 80 58 68 42 67 82 85 121 89 74 66 65 60 57 49 49 51 53 62 64 67 66 75 91 94 96 98 96 96 95 96 100 113 124 124 125 123
207 177 271 360 357 41 42 78 81 78 85 93 99 105 106 105 88 76 74 77 76 73 63 57 53 57 61 60 64 72 82 93 89 95 95 102 106 108 112 113 114 113 116 113
28 72 38 34 45 50 65 83 90 98 104 113 110 103 102 96 93 86 79 71 70 70 65 59 57 53 54 49 56 73 90 92 92 89 92 98 103 110 116 112 114 114 112 108
145 50 52 45 55 55 66 82 91 99 109 111 111 110 101 95 89 83 76 73 72 74 72 66 58 54 50 49 58 72 86 92 100 101 104 102 102 107 111 111 111 110 110 108
87 135 116 50 49 66 75 85 91 92 92 98 103 98 98 93 84 80 75 72 76 80 78 73 66 65 64 53 51 70 84 91 96 103 106 108 108 108 112 108 112 119 118 121
18 337 101 67 59 76 84 74 77 90 96 98 97 94 96 93 86 79 76 77 82 84 83 79 74 71 67 59 50 64 79 81 85 89 92 94 102 112 112 114 120 119 120 126
92 83 106 102 84 85 89 87 89 92 93 95 88 91 85 91 87 85 83 84 83 78 77 77 75 75 72 68 59 61 68 77 86 86 88 90 97 102 114 120 128 130 132 129
126 127 94 152 117 100 108 101 89 89 83 80 92 101 107 103 99 87 80 75 80 83 79 72 71 71 68 64 61 72 76 81 77 82 86 95 93 97 101 112 128 136 140 139
115 127 113 107 122 125 139 118 108 102 105 102 88 94 108 105 90 75 70 73 78 87 86 75 65 66 57 58 60 58 73 91 87 88 95 101 95 93 98 110 119 127 135 142
135 119 132 123 127 145 159 139 115 111 110 98 111 129 119 112 91 72 69 75 82 83 84 89 68 63 67 52 63 53 57 71 64 68 79 81 88 90 100 117 168 170 152 131
156 139 152 141 141 145 149 143 123 118 127 118 102 87 93 99 96 85 73 62 58 61 73 103 138 122 21 354 358 9 358 2 8 353 90 98 84 98 65 91 161 180 189 178
158 157 169 157 147 143 144 145 145 137 140 130 114 87 67 83 76 70 61 59 42 33 27 50 193 193 237 267 301 322 327 315 285 265 256 283 291 319 18 92 138 186 205 260
140 143 146 148 145 153 149 147 134 122 121 127 114 86 74 80 87 67 55 36 15 12 358 14 100 232 247 258 269 287 293 303 293 244 246 256 280 286 287 291 285 251 260 283
145 143 143 143 131 117 124 122 124 127 123 115 111 107 99 90 79 36 25 356 347 351 348 331 315 289 260 263 265 272 271 276 271 250 235 243 253 258 257 262 269 275 283 295
156 151 143 135 133 128 126 119 120 124 126 131 131 137 143 166 225 338 347 318 335 343 344 314 317 297 275 269 270 276 277 271 265 257 257 253 242 236 247 258 269 279 286 293
143 142 134 129 127 125 121 117 114 109 103 104 125 146 154 249 316 340 338 333 331 326 321 313 316 296 265 267 275 285 282 271 267 267 260 259 264 265 266 263 271 277 279 285
136 132 127 123 118 110 105 105 103 90 75 71 64 27 348 329 327 334 326 325 334 333 316 307 319 301 265 266 278 284 278 275 271 269 271 270 266 266 270 275 280 281 283 284
137 132 128 121 113 95 93 102 111 83 75 79 60 53 32 8 357 348 332 320 330 341 337 316 340 356 285 291 295 295 291 284 283 277 267 271 280 273 266 273 276 281 282 284
141 140 139 138 142 108 87 72 59 3 338 327 317 304 310 325 332 344 355 353 339 349 3 8 357 351 359 359 331 316 313 313 294 286 290 294 279 269 275 279 281 283 286 294
150 149 137 124 112 168 198 280 305 312 287 289 298 292 301 304 303 322 341 344 342 333 332 334 337 336 340 340 333 333 336 310 287 288 296 301 299 289 287 281 272 275 280 283
168 158 151 177 219 257 277 290 296 282 281 287 286 275 279 282 272 300 319 322 321 310 317 318 317 320 312 314 315 312 314 315 319 312 306 303 301 300 298 297 291 285 284 283
Height
1459 1456 1451 1447 1445 1439 1438 1437 1439 1423 1422 1417 1414 1415 1418 1418 1417 1414 1411 1407 1405 1402 1397 1394 1391 1390 1387 1385 1383 1382 1383 1382 1385 1394 1400 1405 1408 1413 1417 1420 1423 1424 1425 1425
1455 1451 1446 1442 1435 1430 1426 1423 1419 1422 1415 1427 1423 1424 1424 1425 1422 1419 1417 1414 1411 1407 1401 1395 1393 1393 1392 1388 1385 1385 1384 1385 1387 1392 1397 1402 1405 1409 1412 1418 1421 1422 1423 1424
1453 1445 1443 1437 1420 1417 1415 1415 1416 1415 1417 1425 1424 1426 1431 1430 1426 1424 1422 1421 1417 1412 1407 1404 1400 1397 1394 1394 1391 1388 1387 1386 1390 1392 1396 1399 1403 1406 1409 1414 1418 1420 1422 1423
1452 1448 1450 1420 1420 1414 1421 1423 1421 1420 1422 1425 1427 1429 1435 1434 1431 1428 1426 1425 1423 1419 1414 1411 1407 1403 1401 1400 1399 1397 1394 1392 1390 1392 1394 1396 1400 1405 1407 1411 1415 1417 1419 1421
1455 1446 1428 1416 1425 1431 1432 1430 1430 1426 1428 1428 1429 1430 1436 1438 1435 1433 1430 1429 1426 1423 1419 1415 1413 1412 1407 1405 1404 1403 1402 1400 1398 1398 1398 1398 1398 1401 1405 1407 1411 1414 1416 1419
1444 1442 1444 1431 1431 1428 1429 1427 1437 1433 1434 1430 1430 1426 1441 1440 1438 1436 1433 1432 1430 1427 1423 1420 1418 1418 1416 1414 1411 1407 1408 1407 1405 1406 1407 1401 1406 1406 1407 1409 1409 1413 1413 1417
1443 1441 1433 1438 1431 1422 1414 1440 1440 1439 1434 1430 1433 1439 1443 1442 1441 1439 1438 1436 1433 1431 1428 1427 1424 1423 1423 1419 1418 1418 1415 1414 1411 1409 1407 1410 1410 1415 1414 1415 1416 1416 1417 1419
1432 1434 1434 1441 1431 1429 1440 1440 1441 1439 1442 1441 1441 1444 1444 1445 1444 1443 1441 1439 1437 1435 1435 1433 1431 1429 1428 1427 1427 1425 1423 1423 1417 1416 1414 1414 1413 1415 1421 1418 1424 1422 1423 1422
1442 1448 1452 1450 1449 1446 1444 1443 1444 1443 1445 1444 1444 1446 1447 1447 1446 1445 1444 1443 1443 1441 1441 1438 1436 1434 1433 1432 1432 1430 1430 1426 1424 1424 1423 1425 1420 1421 1429 1426 1423 1426 1425 1425
1447 1454 1453 1451 1450 1449 1449 1448 1447 1447 1448 1447 1447 1449 1449 1449 1448 1448 1448 1447 1447 1446 1444 1443 1441 1438 1437 1437 1435 1435 1434 1432 1430 1429 1429 1429 1428 1431 1433 1430 1430 1433 1431 1432
1454 1456 1456 1456 1455 1454 1453 1451 1449 1449 1448 1449 1450 1451 1451 1451 1451 1451 1450 1450 1451 1450 1447 1446 1446 1445 1444 1443 1442 1440 1438 1437 1436 1434 1433 1432 1433 1434 1434 1434 1435 1437 1437 1436
1459 1457 1457 1459 1458 1456 1455 1454 1455 1453 1453 1454 1453 1455 1456 1455 1455 1454 1453 1453 1453 1453 1451 1450 1450 1449 1448 1448 1447 1446 1444 1443 1441 1440 1439 1437 1437 1437 1436 1438 1440 1442 1444 1443
1460 1459 1458 1459 1460 1460 1459 1460 1460 1459 1458 1455 1454 1456 1460 1459 1458 1457 1457 1457 1455 1454 1454 1453 1453 1453 1452 1451 1451 1449 1449 1447 1446 1445 1444 1443 1443 1442 1441 1442 1444 1446 1447 1447
1460 1460 1460 1460 1461 1462 1463 1462 1461 1461 1459 1458 1460 1461 1462 1463 1461 1460 1459 1458 1458 1457 1457 1456 1456 1455 1454 1454 1453 1452 1451 1451 1450 1449 1448 1447 1446 1446 1445 1446 1447 1449 1449 1449
1461 1460 1461 1462 1463 1465 1465 1465 1465 1464 1462 1463 1463 1466 1466 1466 1463 1462 1461 1461 1460 1460 1460 1460 1459 1458 1458 1457 1456 1454 1453 1452 1452 1451 1451 1450 1448 1449 1449 1450 1450 1450 1451 1452
1464 1464 1464 1465 1466 1467 1467 1467 1466 1466 1465 1465 1467 1469 1467 1466 1465 1464 1463 1463 1463 1462 1462 1462 1461 1461 1460 1460 1458 1457 1456 1455 1454 1453 1453 1452 1452 1451 1452 1452 1452 1452 1452 1452
1464 1465 1465 1467 1467 1468 1468 1468 1468 1467 1468 1468 1469 1469 1468 1467 1466 1465 1465 1465 1465 1464 1464 1463 1463 1462 1462 1461 1460 1459 1458 1458 1456 1455 1455 1454 1454 1454 1453 1452 1452 1453 1453 1453
1462 1463 1464 1465 1467 1467 1468 1468 1469 1469 1469 1469 1470 1470 1469 1468 1468 1467 1467 1467 1466 1466 1465 1465 1464 1463 1463 1462 1461 1459 1458 1458 1457 1456 1455 1455 1455 1455 1454 1454 1454 1453 1452 1452
1464 1464 1465 1466 1467 1467 1467 1468 1468 1469 1469 1470 1470 1470 1470 1469 1469 1469 1469 1468 1467 1466 1466 1465 1465 1464 1463 1462 1461 1460 1459 1458 1458 1456 1456 1455 1455 1455 1454 1454 1454 1454 1453 1453
1464 1464 1465 1465 1466 1467 1467 1468 1469 1470 1470 1471 1471 1471 1471 1471 1471 1470 1470 1470 1468 1468 1466 1465 1464 1463 1462 1461 1461 1460 1459 1458 1458 1457 1457 1457 1456 1456 1455 1455 1454 1454 1454 1453
1463 1464 1465 1466 1466 1468 1469 1469 1470 1471 1471 1471 1472 1472 1472 1471 1471 1471 1471 1470 1469 1468 1466 1465 1463 1462 1461 1460 1460 1459 1458 1457 1457 1456 1455 1455 1455 1454 1454 1454 1453 1452 1452 1451
1463 1464 1466 1467 1468 1469 1470 1471 1472 1473 1473 1473 1473 1473 1473 1472 1471 1470 1470 1469 1468 1466 1465 1463 1462 1460 1459 1459 1458 1457 1456 1455 1455 1454 1454 1453 1453 1453 1452 1452 1451 1450 1450 1449
1465 1467 1468 1470 1471 1472 1473 1474 1474 1475 1474 1474 1474 1474 1473 1473 1472 1470 1469 1468 1467 1465 1463 1461 1460 1459 1457 1457 1456 1455 1454 1453 1452 1452 1451 1451 1451 1450 1449 1449 1448 1448 1447 1446
1467 1469 1470 1471 1473 1474 1474 1475 1475 1475 1475 1475 1474 1474 1473 1473 1471 1470 1468 1466 1465 1463 1462 1460 1459 1457 1456 1456 1455 1453 1452 1451 1450 1450 1449 1448 1447 1447 1446 1446 1445 1445 1444 1444
1469 1470 1472 1473 1474 1474 1475 1475 1475 1475 1474 1474 1474 1473 1472 1471 1470 1469 1467 1465 1464 1462 1461 1460 1459 1457 1456 1455 1453 1452 1451 1450 1449 1448 1447 1446 1445 1444 1444 1443 1442 1442 1441 1441
1470 1472 1472 1473 1473 1474 1474 1474 1473 1473 1473 1472 1471 1470 1469 1469 1468 1467 1465 1464 1463 1462 1461 1459 1458 1456 1455 1453 1452 1451 1449 1448 1447 1446 1445 1444 1444 1443 1442 1441 1440 1439 1439 1438
1471 1472 1473 1474 1474 1474 1474 1474 1473 1472 1472 1470 1469 1468 1467 1466 1466 1465 1464 1463 1461 1460 1458 1457 1455 1454 1453 1451 1450 1449 1447 1446 1444 1443 1442 1441 1440 1439 1438 1437 1436 1435 1435 1434